WJA535 CYYZ-CYWG

Flight info

Callsign WJA535
Flight time 2h 14m
Altitude 36000
Route AVSEP7 MUSIT DCT SSM DCT AGLIN DCT GOVIT NORAK6
Aircraft B738/M-SDE2E3FGHIRWXY/LB1

Departure

Time 2026-05-05 03:20
Airport Toronto Pearson International Airport (CYYZ)

Arrival

Time 2026-05-05 05:34
Airport Winnipeg / James Armstrong Richardson International Airport (CYWG)
Time Latitude Longitude Altitude Speed Heading
2026-05-05 02:45 43.67957 -79.60729 565 ft 0 kts 227°
2026-05-05 02:47 43.67974 -79.61497 567 ft 0 kts 316°
2026-05-05 02:56 43.67974 -79.61496 560 ft 0 kts 315°
2026-05-05 03:08 43.67963 -79.61482 560 ft 4 kts 312°
2026-05-05 03:08 43.67947 -79.61453 566 ft 4 kts 298°
2026-05-05 03:08 43.67940 -79.61422 570 ft 4 kts 245°
2026-05-05 03:09 43.67945 -79.61412 568 ft 1 kts 193°
2026-05-05 03:11 43.67934 -79.61415 570 ft 4 kts 192°
2026-05-05 03:11 43.67904 -79.61429 564 ft 5 kts 208°
2026-05-05 03:11 43.67864 -79.61481 567 ft 10 kts 226°
2026-05-05 03:11 43.67831 -79.61528 568 ft 10 kts 226°
2026-05-05 03:12 43.67782 -79.61599 560 ft 10 kts 226°
2026-05-05 03:12 43.67730 -79.61660 563 ft 10 kts 195°
2026-05-05 03:12 43.67663 -79.61647 564 ft 10 kts 199°
2026-05-05 03:12 43.67639 -79.61723 562 ft 10 kts 295°
2026-05-05 03:13 43.67712 -79.61828 562 ft 13 kts 316°
2026-05-05 03:13 43.67777 -79.61914 565 ft 13 kts 316°
2026-05-05 03:13 43.67821 -79.61971 562 ft 13 kts 317°
2026-05-05 03:13 43.67886 -79.62051 568 ft 13 kts 328°
2026-05-05 03:14 43.67972 -79.62102 564 ft 14 kts 323°
2026-05-05 03:14 43.68048 -79.62201 561 ft 16 kts 316°
2026-05-05 03:14 43.68132 -79.62310 561 ft 17 kts 317°
2026-05-05 03:14 43.68211 -79.62413 561 ft 16 kts 317°
2026-05-05 03:15 43.68298 -79.62513 561 ft 16 kts 319°
2026-05-05 03:15 43.68378 -79.62619 561 ft 16 kts 316°
2026-05-05 03:15 43.68457 -79.62721 570 ft 16 kts 317°
2026-05-05 03:15 43.68533 -79.62820 565 ft 15 kts 317°
2026-05-05 03:16 43.68607 -79.62916 560 ft 14 kts 316°
2026-05-05 03:16 43.68678 -79.63008 562 ft 14 kts 316°
2026-05-05 03:16 43.68745 -79.63097 567 ft 13 kts 316°
2026-05-05 03:16 43.68811 -79.63182 562 ft 13 kts 317°
2026-05-05 03:17 43.68878 -79.63270 561 ft 14 kts 316°
2026-05-05 03:17 43.68945 -79.63358 563 ft 13 kts 317°
2026-05-05 03:17 43.69013 -79.63446 563 ft 14 kts 316°
2026-05-05 03:17 43.69089 -79.63532 568 ft 14 kts 343°
2026-05-05 03:18 43.69169 -79.63459 564 ft 15 kts 44°
2026-05-05 03:18 43.69268 -79.63421 568 ft 16 kts 359°
2026-05-05 03:18 43.69376 -79.63444 562 ft 13 kts 323°
2026-05-05 03:18 43.69404 -79.63522 563 ft 10 kts 246°
2026-05-05 03:19 43.69094 -79.63973 565 ft 88 kts 226°
2026-05-05 03:19 43.68524 -79.64795 564 ft 146 kts 224°
2026-05-05 03:19 43.67786 -79.65850 1056 ft 157 kts 225°
2026-05-05 03:20 43.67079 -79.66950 1977 ft 143 kts 229°
2026-05-05 03:20 43.66482 -79.67874 3128 ft 126 kts 229°
2026-05-05 03:20 43.65795 -79.68812 3420 ft 154 kts 227°
2026-05-05 03:20 43.65050 -79.69989 3752 ft 170 kts 240°
2026-05-05 03:21 43.64442 -79.71410 4217 ft 180 kts 240°
2026-05-05 03:21 43.63765 -79.72996 4425 ft 201 kts 239°
2026-05-05 03:21 43.63200 -79.74824 4774 ft 224 kts 262°
2026-05-05 03:21 43.63509 -79.77051 5270 ft 247 kts 284°
2026-05-05 03:22 43.64243 -79.79252 5995 ft 256 kts 291°
2026-05-05 03:22 43.65077 -79.81418 6889 ft 255 kts 292°
2026-05-05 03:22 43.65896 -79.83549 7717 ft 254 kts 292°
2026-05-05 03:22 43.66709 -79.85711 8558 ft 254 kts 291°
2026-05-05 03:23 43.67518 -79.87900 9363 ft 256 kts 291°
2026-05-05 03:23 43.68328 -79.90108 10080 ft 259 kts 291°
2026-05-05 03:23 43.69182 -79.92370 10427 ft 280 kts 297°
2026-05-05 03:23 43.70544 -79.94495 10598 ft 312 kts 314°
2026-05-05 03:24 43.72469 -79.96178 10793 ft 340 kts 326°
2026-05-05 03:24 43.74620 -79.97683 11289 ft 350 kts 328°
2026-05-05 03:24 43.76787 -79.99162 11962 ft 354 kts 328°
2026-05-05 03:24 43.78999 -80.00684 12699 ft 356 kts 328°
2026-05-05 03:25 43.81223 -80.02239 13358 ft 361 kts 328°
2026-05-05 03:25 43.83469 -80.03829 13963 ft 364 kts 327°
2026-05-05 03:25 43.85732 -80.05443 14576 ft 367 kts 327°
2026-05-05 03:25 43.88014 -80.07075 15194 ft 370 kts 327°
2026-05-05 03:26 43.90299 -80.08709 15815 ft 373 kts 327°
2026-05-05 03:26 43.92518 -80.10550 16425 ft 370 kts 317°
2026-05-05 03:26 43.94420 -80.12846 17045 ft 366 kts 308°
2026-05-05 03:26 43.96035 -80.15553 17638 ft 364 kts 302°
2026-05-05 03:27 43.97554 -80.18379 18211 ft 366 kts 301°
2026-05-05 03:27 43.99070 -80.21230 18749 ft 368 kts 301°
2026-05-05 03:27 44.00599 -80.24100 19311 ft 370 kts 301°
2026-05-05 03:27 44.02139 -80.26978 19832 ft 373 kts 301°
2026-05-05 03:28 44.03693 -80.29873 20357 ft 374 kts 301°
2026-05-05 03:28 44.05256 -80.32778 20862 ft 376 kts 301°
2026-05-05 03:28 44.06809 -80.35663 21378 ft 378 kts 301°
2026-05-05 03:28 44.08390 -80.38602 21861 ft 381 kts 301°
2026-05-05 03:29 44.09978 -80.41556 22356 ft 382 kts 301°
2026-05-05 03:29 44.11575 -80.44527 22840 ft 384 kts 301°
2026-05-05 03:29 44.13179 -80.47514 23283 ft 387 kts 301°
2026-05-05 03:29 44.14876 -80.50449 23660 ft 392 kts 305°
2026-05-05 03:30 44.16728 -80.53265 24039 ft 396 kts 307°
2026-05-05 03:30 44.18629 -80.56050 24453 ft 397 kts 307°
2026-05-05 03:30 44.20545 -80.58836 24832 ft 399 kts 307°
2026-05-05 03:30 44.22468 -80.61644 25178 ft 401 kts 307°
2026-05-05 03:31 44.24358 -80.64422 25524 ft 404 kts 307°
2026-05-05 03:31 44.26291 -80.67284 25864 ft 406 kts 307°
2026-05-05 03:31 44.28229 -80.70167 26207 ft 408 kts 306°
2026-05-05 03:31 44.30165 -80.73056 26554 ft 409 kts 306°
2026-05-05 03:32 44.32113 -80.75971 26871 ft 411 kts 306°
2026-05-05 03:32 44.34067 -80.78900 27169 ft 413 kts 306°
2026-05-05 03:32 44.36033 -80.81850 27489 ft 415 kts 306°
2026-05-05 03:32 44.38002 -80.84809 27806 ft 417 kts 306°
2026-05-05 03:33 44.39982 -80.87786 28112 ft 419 kts 306°
2026-05-05 03:33 44.41939 -80.90733 28408 ft 420 kts 306°
2026-05-05 03:33 44.43926 -80.93728 28796 ft 420 kts 306°
2026-05-05 03:33 44.45909 -80.96715 29277 ft 417 kts 306°
2026-05-05 03:34 44.47879 -80.99687 29722 ft 415 kts 306°
2026-05-05 03:34 44.49838 -81.02647 30049 ft 414 kts 306°
2026-05-05 03:34 44.51792 -81.05605 30356 ft 414 kts 306°
2026-05-05 03:34 44.53745 -81.08564 30693 ft 413 kts 306°
2026-05-05 03:35 44.55690 -81.11515 31048 ft 411 kts 306°
2026-05-05 03:35 44.57602 -81.14418 31374 ft 410 kts 306°
2026-05-05 03:35 44.59536 -81.17358 31687 ft 409 kts 306°
2026-05-05 03:35 44.61462 -81.20288 32013 ft 408 kts 306°
2026-05-05 03:36 44.63377 -81.23206 32346 ft 407 kts 306°
2026-05-05 03:36 44.65292 -81.26126 32657 ft 406 kts 306°
2026-05-05 03:36 44.67200 -81.29038 33053 ft 404 kts 305°
2026-05-05 03:36 44.69090 -81.31922 33595 ft 397 kts 305°
2026-05-05 03:37 44.70955 -81.34772 33863 ft 397 kts 305°
2026-05-05 03:37 44.72827 -81.37643 33958 ft 400 kts 305°
2026-05-05 03:37 44.74685 -81.40498 34086 ft 402 kts 305°
2026-05-05 03:37 44.76574 -81.43400 34322 ft 401 kts 305°
2026-05-05 03:38 44.78453 -81.46285 34559 ft 400 kts 305°
2026-05-05 03:38 44.80335 -81.49179 34737 ft 401 kts 305°
2026-05-05 03:38 44.82221 -81.52083 34881 ft 402 kts 305°
2026-05-05 03:38 44.84111 -81.54996 35052 ft 403 kts 305°
2026-05-05 03:39 44.85998 -81.57907 35263 ft 402 kts 305°
2026-05-05 03:39 44.87883 -81.60817 35479 ft 402 kts 305°
2026-05-05 03:39 44.91637 -81.66624 35550 ft 404 kts 305°
2026-05-05 03:40 44.95413 -81.72479 35540 ft 403 kts 304°
2026-05-05 03:40 44.99177 -81.78323 35543 ft 402 kts 304°
2026-05-05 03:41 45.02929 -81.84159 35543 ft 401 kts 304°
2026-05-05 03:41 45.06652 -81.89950 35544 ft 400 kts 304°
2026-05-05 03:42 45.10390 -81.95781 35576 ft 400 kts 304°
2026-05-05 03:42 45.14123 -82.01623 35554 ft 400 kts 304°
2026-05-05 03:43 45.17860 -82.07482 35548 ft 401 kts 304°
2026-05-05 03:43 45.21566 -82.13307 35544 ft 402 kts 304°
2026-05-05 03:44 45.25307 -82.19199 35548 ft 402 kts 304°
2026-05-05 03:44 45.29044 -82.25098 35557 ft 403 kts 304°
2026-05-05 03:45 45.32794 -82.31032 35586 ft 404 kts 304°
2026-05-05 03:45 45.36525 -82.36947 35563 ft 405 kts 304°
2026-05-05 03:46 45.40261 -82.42937 35555 ft 403 kts 302°
2026-05-05 03:46 45.43753 -82.49159 35562 ft 401 kts 300°
2026-05-05 03:47 45.47170 -82.55420 35568 ft 401 kts 300°
2026-05-05 03:47 45.50596 -82.61686 35585 ft 401 kts 300°
2026-05-05 03:48 45.54007 -82.67911 35597 ft 401 kts 300°
2026-05-05 03:48 45.57436 -82.74171 35578 ft 400 kts 300°
2026-05-05 03:49 45.60861 -82.80432 35575 ft 399 kts 300°
2026-05-05 03:49 45.64263 -82.86664 35573 ft 399 kts 300°
2026-05-05 03:50 45.67641 -82.92867 35573 ft 398 kts 300°
2026-05-05 03:50 45.71034 -82.99111 35577 ft 397 kts 300°
2026-05-05 03:51 45.74424 -83.05367 35568 ft 397 kts 300°
2026-05-05 03:51 45.77804 -83.11615 35587 ft 397 kts 300°
2026-05-05 03:52 45.81148 -83.17812 35580 ft 397 kts 300°
2026-05-05 03:52 45.84532 -83.24095 35579 ft 397 kts 300°
2026-05-05 03:53 45.87906 -83.30375 35594 ft 398 kts 300°
2026-05-05 03:53 45.91283 -83.36674 35588 ft 398 kts 300°
2026-05-05 03:54 45.94639 -83.42949 35568 ft 399 kts 300°
2026-05-05 03:54 45.98017 -83.49278 35576 ft 399 kts 300°
2026-05-05 03:55 46.01402 -83.55636 35589 ft 401 kts 300°
2026-05-05 03:55 46.04792 -83.62015 35585 ft 401 kts 300°
2026-05-05 03:56 46.08172 -83.68391 35588 ft 402 kts 300°
2026-05-05 03:56 46.11535 -83.74748 35582 ft 401 kts 300°
2026-05-05 03:57 46.14906 -83.81135 35581 ft 401 kts 300°
2026-05-05 03:57 46.18276 -83.87536 35579 ft 400 kts 300°
2026-05-05 03:58 46.21636 -83.93935 35609 ft 400 kts 300°
2026-05-05 03:58 46.24972 -84.00302 35582 ft 401 kts 300°
2026-05-05 03:59 46.28336 -84.06739 35590 ft 401 kts 300°
2026-05-05 03:59 46.31701 -84.13190 35580 ft 402 kts 300°
2026-05-05 04:00 46.35054 -84.19636 35578 ft 402 kts 300°
2026-05-05 04:00 46.38420 -84.26121 35580 ft 403 kts 300°
2026-05-05 04:01 46.41706 -84.32603 35557 ft 399 kts 295°
2026-05-05 04:01 46.44493 -84.39531 35604 ft 398 kts 293°
2026-05-05 04:02 46.47203 -84.46560 35580 ft 399 kts 293°
2026-05-05 04:02 46.49909 -84.53544 35572 ft 400 kts 293°
2026-05-05 04:03 46.52652 -84.60584 35571 ft 401 kts 294°
2026-05-05 04:03 46.55402 -84.67633 35574 ft 401 kts 294°
2026-05-05 04:04 46.58146 -84.74677 35600 ft 401 kts 294°
2026-05-05 04:04 46.60867 -84.81682 35597 ft 400 kts 293°
2026-05-05 04:05 46.63596 -84.88722 35586 ft 399 kts 293°
2026-05-05 04:05 46.66313 -84.95751 35587 ft 398 kts 293°
2026-05-05 04:06 46.69016 -85.02764 35582 ft 396 kts 293°
2026-05-05 04:06 46.71703 -85.09753 35578 ft 395 kts 293°
2026-05-05 04:07 46.74361 -85.16686 35579 ft 394 kts 293°
2026-05-05 04:07 46.77028 -85.23659 35579 ft 393 kts 293°
2026-05-05 04:08 46.79686 -85.30626 35581 ft 393 kts 293°
2026-05-05 04:08 46.82329 -85.37575 35579 ft 393 kts 293°
2026-05-05 04:09 46.84959 -85.44503 35580 ft 393 kts 293°
2026-05-05 04:09 46.87606 -85.51497 35581 ft 394 kts 293°
2026-05-05 04:10 46.90258 -85.58524 35586 ft 396 kts 293°
2026-05-05 04:10 46.92922 -85.65597 35584 ft 398 kts 293°
2026-05-05 04:11 46.95572 -85.72655 35583 ft 400 kts 293°
2026-05-05 04:11 46.98258 -85.79826 35577 ft 402 kts 293°
2026-05-05 04:12 47.00951 -85.87031 35579 ft 404 kts 293°
2026-05-05 04:12 47.03641 -85.94252 35585 ft 405 kts 293°
2026-05-05 04:13 47.06341 -86.01515 35579 ft 406 kts 293°
2026-05-05 04:13 47.09011 -86.08720 35578 ft 405 kts 293°
2026-05-05 04:14 47.11697 -86.15986 35619 ft 405 kts 293°
2026-05-05 04:14 47.14378 -86.23260 35596 ft 405 kts 293°
2026-05-05 04:15 47.17051 -86.30532 35591 ft 405 kts 293°
2026-05-05 04:15 47.19709 -86.37781 35583 ft 405 kts 293°
2026-05-05 04:16 47.22378 -86.45082 35586 ft 406 kts 293°
2026-05-05 04:16 47.25046 -86.52399 35575 ft 406 kts 293°
2026-05-05 04:17 47.27712 -86.59734 35585 ft 406 kts 293°
2026-05-05 04:17 47.30359 -86.67034 35579 ft 407 kts 293°
2026-05-05 04:18 47.33020 -86.74393 35581 ft 407 kts 293°
2026-05-05 04:18 47.35683 -86.81782 35584 ft 409 kts 294°
2026-05-05 04:19 47.38348 -86.89193 35584 ft 410 kts 294°
2026-05-05 04:19 47.41003 -86.96599 35586 ft 411 kts 294°
2026-05-05 04:20 47.43680 -87.04086 35581 ft 413 kts 294°
2026-05-05 04:20 47.46358 -87.11597 35586 ft 414 kts 294°
2026-05-05 04:21 47.49035 -87.19127 35577 ft 415 kts 294°
2026-05-05 04:21 47.51715 -87.26687 35577 ft 415 kts 294°
2026-05-05 04:22 47.54370 -87.34197 35573 ft 415 kts 294°
2026-05-05 04:22 47.57044 -87.41782 35591 ft 416 kts 294°
2026-05-05 04:23 47.59714 -87.49381 35586 ft 416 kts 294°
2026-05-05 04:23 47.62375 -87.56975 35575 ft 417 kts 294°
2026-05-05 04:24 47.65021 -87.64548 35568 ft 417 kts 294°
2026-05-05 04:25 47.69013 -87.76014 35574 ft 417 kts 294°
2026-05-05 04:25 47.71668 -87.83669 35582 ft 417 kts 294°
2026-05-05 04:26 47.74319 -87.91334 35581 ft 417 kts 294°
2026-05-05 04:26 47.76965 -87.99006 35592 ft 417 kts 294°
2026-05-05 04:27 47.79586 -88.06630 35600 ft 418 kts 294°
2026-05-05 04:27 47.82225 -88.14328 35598 ft 418 kts 294°
2026-05-05 04:28 47.84864 -88.22050 35598 ft 419 kts 294°
2026-05-05 04:28 47.87500 -88.29787 35596 ft 419 kts 294°
2026-05-05 04:29 47.90118 -88.37493 35596 ft 420 kts 294°
2026-05-05 04:29 47.92751 -88.45265 35597 ft 420 kts 294°
2026-05-05 04:30 47.95378 -88.53044 35599 ft 421 kts 294°
2026-05-05 04:30 47.98003 -88.60842 35600 ft 421 kts 294°
2026-05-05 04:31 48.00622 -88.68644 35634 ft 421 kts 294°
2026-05-05 04:31 48.03230 -88.76437 35614 ft 422 kts 294°
2026-05-05 04:32 48.05850 -88.84291 35608 ft 423 kts 294°
2026-05-05 04:32 48.08472 -88.92175 35606 ft 423 kts 294°
2026-05-05 04:33 48.11088 -89.00065 35611 ft 423 kts 294°
2026-05-05 04:33 48.13675 -89.07892 35607 ft 423 kts 294°
2026-05-05 04:34 48.16280 -89.15800 35611 ft 423 kts 294°
2026-05-05 04:34 48.18879 -89.23715 35609 ft 423 kts 294°
2026-05-05 04:35 48.21463 -89.31612 35612 ft 423 kts 294°
2026-05-05 04:35 48.24055 -89.39551 35617 ft 424 kts 294°
2026-05-05 04:36 48.26438 -89.47570 35616 ft 423 kts 288°
2026-05-05 04:36 48.28385 -89.55900 35614 ft 423 kts 287°
2026-05-05 04:37 48.30282 -89.64271 35624 ft 424 kts 287°
2026-05-05 04:37 48.32203 -89.72652 35624 ft 425 kts 287°
2026-05-05 04:38 48.34128 -89.80982 35627 ft 425 kts 287°
2026-05-05 04:38 48.36068 -89.89372 35629 ft 425 kts 287°
2026-05-05 04:39 48.38008 -89.97785 35631 ft 425 kts 287°
2026-05-05 04:39 48.39938 -90.06196 35642 ft 426 kts 287°
2026-05-05 04:40 48.41864 -90.14618 35639 ft 425 kts 287°
2026-05-05 04:40 48.43768 -90.22982 35667 ft 425 kts 287°
2026-05-05 04:41 48.45679 -90.31407 35648 ft 425 kts 287°
2026-05-05 04:41 48.47579 -90.39821 35646 ft 424 kts 287°
2026-05-05 04:42 48.49473 -90.48235 35651 ft 423 kts 287°
2026-05-05 04:42 48.51344 -90.56586 35658 ft 423 kts 287°
2026-05-05 04:43 48.53218 -90.64983 35655 ft 422 kts 287°
2026-05-05 04:43 48.55081 -90.73362 35666 ft 422 kts 287°
2026-05-05 04:44 48.56942 -90.81767 35667 ft 422 kts 287°
2026-05-05 04:44 48.58782 -90.90111 35676 ft 422 kts 287°
2026-05-05 04:45 48.60630 -90.98528 35677 ft 422 kts 287°
2026-05-05 04:45 48.62478 -91.06974 35688 ft 423 kts 287°
2026-05-05 04:46 48.64319 -91.15423 35690 ft 424 kts 287°
2026-05-05 04:46 48.66158 -91.23900 35703 ft 425 kts 287°
2026-05-05 04:47 48.67987 -91.32364 35690 ft 427 kts 287°
2026-05-05 04:47 48.69824 -91.40901 35707 ft 428 kts 287°
2026-05-05 04:48 48.71661 -91.49473 35707 ft 429 kts 287°
2026-05-05 04:48 48.73484 -91.58017 35713 ft 430 kts 287°
2026-05-05 04:49 48.75317 -91.66640 35708 ft 430 kts 287°
2026-05-05 04:49 48.77144 -91.75275 35712 ft 430 kts 287°
2026-05-05 04:50 48.78960 -91.83892 35723 ft 430 kts 287°
2026-05-05 04:50 48.80771 -91.92528 35720 ft 429 kts 287°
2026-05-05 04:51 48.82563 -92.01102 35722 ft 429 kts 287°
2026-05-05 04:51 48.84356 -92.09725 35716 ft 428 kts 287°
2026-05-05 04:52 48.86140 -92.18334 35732 ft 427 kts 287°
2026-05-05 04:52 48.87909 -92.26914 35724 ft 426 kts 287°
2026-05-05 04:53 48.89663 -92.35458 35735 ft 426 kts 287°
2026-05-05 04:53 48.91420 -92.44050 35733 ft 425 kts 287°
2026-05-05 04:54 48.93168 -92.52636 35744 ft 425 kts 287°
2026-05-05 04:54 48.94910 -92.61232 35745 ft 425 kts 287°
2026-05-05 04:55 48.96627 -92.69741 35752 ft 425 kts 287°
2026-05-05 04:55 48.98354 -92.78335 35748 ft 425 kts 287°
2026-05-05 04:56 49.00078 -92.86950 35752 ft 425 kts 287°
2026-05-05 04:56 49.01790 -92.95549 35756 ft 425 kts 287°
2026-05-05 04:57 49.03490 -93.04122 35761 ft 425 kts 287°
2026-05-05 04:57 49.05194 -93.12751 35763 ft 426 kts 287°
2026-05-05 04:58 49.06896 -93.21414 35764 ft 427 kts 287°
2026-05-05 04:58 49.08590 -93.30072 35767 ft 427 kts 287°
2026-05-05 04:59 49.10282 -93.38759 35768 ft 428 kts 287°
2026-05-05 04:59 49.11960 -93.47414 35772 ft 428 kts 287°
2026-05-05 05:00 49.13645 -93.56142 35773 ft 428 kts 287°
2026-05-05 05:00 49.15322 -93.64873 35782 ft 428 kts 287°
2026-05-05 05:01 49.16991 -93.73599 35778 ft 425 kts 287°
2026-05-05 05:01 49.17809 -93.77893 35476 ft 421 kts 287°
2026-05-05 05:01 49.18607 -93.82091 35193 ft 414 kts 287°
2026-05-05 05:01 49.19406 -93.86302 34804 ft 411 kts 287°
2026-05-05 05:02 49.19717 -93.87944 34662 ft 409 kts 287°
2026-05-05 05:02 49.20700 -93.93145 34204 ft 405 kts 287°
2026-05-05 05:02 49.21478 -93.97272 33809 ft 403 kts 287°
2026-05-05 05:03 49.22252 -94.01382 33355 ft 401 kts 287°
2026-05-05 05:03 49.23018 -94.05461 32955 ft 397 kts 287°
2026-05-05 05:03 49.23778 -94.09516 32567 ft 394 kts 287°
2026-05-05 05:03 49.24518 -94.13477 32188 ft 391 kts 287°
2026-05-05 05:04 49.25262 -94.17464 31813 ft 388 kts 287°
2026-05-05 05:04 49.25999 -94.21425 31441 ft 385 kts 287°
2026-05-05 05:04 49.26729 -94.25355 31074 ft 382 kts 287°
2026-05-05 05:04 49.27449 -94.29240 30717 ft 380 kts 287°
2026-05-05 05:05 49.28167 -94.33119 30359 ft 377 kts 287°
2026-05-05 05:05 49.28878 -94.36973 29999 ft 375 kts 287°
2026-05-05 05:05 49.29574 -94.40748 29600 ft 372 kts 287°
2026-05-05 05:05 49.30272 -94.44550 29176 ft 369 kts 287°
2026-05-05 05:06 49.30961 -94.48308 28841 ft 364 kts 287°
2026-05-05 05:06 49.31642 -94.52028 28461 ft 360 kts 288°
2026-05-05 05:06 49.32314 -94.55706 28081 ft 357 kts 288°
2026-05-05 05:06 49.32979 -94.59356 27720 ft 354 kts 288°
2026-05-05 05:07 49.33638 -94.62977 27372 ft 351 kts 288°
2026-05-05 05:07 49.34290 -94.66566 27009 ft 348 kts 288°
2026-05-05 05:07 49.34937 -94.70132 26652 ft 346 kts 288°
2026-05-05 05:07 49.35568 -94.73622 26309 ft 343 kts 288°
2026-05-05 05:08 49.36202 -94.77136 25952 ft 341 kts 288°
2026-05-05 05:08 49.36833 -94.80632 25619 ft 339 kts 288°
2026-05-05 05:08 49.37457 -94.84105 25292 ft 337 kts 288°
2026-05-05 05:08 49.38078 -94.87560 24949 ft 335 kts 288°
2026-05-05 05:09 49.38695 -94.91003 24598 ft 334 kts 289°
2026-05-05 05:09 49.39308 -94.94433 24261 ft 332 kts 289°
2026-05-05 05:09 49.39918 -94.97849 23937 ft 331 kts 289°
2026-05-05 05:09 49.40513 -95.01190 23610 ft 330 kts 289°
2026-05-05 05:10 49.41115 -95.04592 23242 ft 330 kts 289°
2026-05-05 05:10 49.41717 -95.07985 22865 ft 328 kts 289°
2026-05-05 05:10 49.42314 -95.11352 22514 ft 326 kts 289°
2026-05-05 05:10 49.42907 -95.14707 22176 ft 324 kts 289°
2026-05-05 05:11 49.43493 -95.18027 21853 ft 321 kts 289°
2026-05-05 05:11 49.44074 -95.21325 21543 ft 319 kts 289°
2026-05-05 05:11 49.44651 -95.24605 21208 ft 316 kts 289°
2026-05-05 05:11 49.45222 -95.27857 20898 ft 314 kts 289°
2026-05-05 05:12 49.45780 -95.31043 20589 ft 312 kts 289°
2026-05-05 05:12 49.46339 -95.34237 20282 ft 310 kts 289°
2026-05-05 05:12 49.46896 -95.37430 19969 ft 308 kts 289°
2026-05-05 05:12 49.47448 -95.40598 19657 ft 306 kts 289°
2026-05-05 05:13 49.47996 -95.43751 19359 ft 304 kts 289°
2026-05-05 05:13 49.48541 -95.46887 19061 ft 302 kts 289°
2026-05-05 05:13 49.49081 -95.50004 18754 ft 301 kts 289°
2026-05-05 05:13 49.49618 -95.53105 18460 ft 299 kts 289°
2026-05-05 05:14 49.50151 -95.56194 18165 ft 298 kts 289°
2026-05-05 05:14 49.50674 -95.59227 17828 ft 297 kts 289°
2026-05-05 05:14 49.51197 -95.62267 17633 ft 291 kts 289°
2026-05-05 05:14 49.51707 -95.65243 17353 ft 288 kts 289°
2026-05-05 05:15 49.52218 -95.68222 17055 ft 285 kts 289°
2026-05-05 05:15 49.52722 -95.71163 16772 ft 284 kts 288°
2026-05-05 05:15 49.53229 -95.74117 16487 ft 286 kts 288°
2026-05-05 05:15 49.53738 -95.77097 16199 ft 291 kts 288°
2026-05-05 05:16 49.54258 -95.80139 15909 ft 297 kts 288°
2026-05-05 05:16 49.54845 -95.83193 15439 ft 300 kts 293°
2026-05-05 05:16 49.55624 -95.86136 15060 ft 299 kts 296°
2026-05-05 05:16 49.56462 -95.89062 14717 ft 298 kts 297°
2026-05-05 05:17 49.57299 -95.91970 14406 ft 296 kts 296°
2026-05-05 05:17 49.58126 -95.94866 14097 ft 294 kts 296°
2026-05-05 05:17 49.58938 -95.97746 13797 ft 292 kts 296°
2026-05-05 05:17 49.59740 -96.00614 13485 ft 290 kts 296°
2026-05-05 05:18 49.60530 -96.03462 13170 ft 287 kts 296°
2026-05-05 05:18 49.61307 -96.06278 12876 ft 285 kts 295°
2026-05-05 05:18 49.62063 -96.09025 12605 ft 281 kts 295°
2026-05-05 05:18 49.62823 -96.11792 12316 ft 279 kts 295°
2026-05-05 05:19 49.63573 -96.14531 12031 ft 276 kts 295°
2026-05-05 05:19 49.64316 -96.17248 11746 ft 274 kts 295°
2026-05-05 05:19 49.65052 -96.19947 11468 ft 271 kts 295°
2026-05-05 05:19 49.65780 -96.22615 11187 ft 269 kts 295°
2026-05-05 05:20 49.66504 -96.25274 10912 ft 268 kts 295°
2026-05-05 05:20 49.67226 -96.27927 10664 ft 268 kts 295°
2026-05-05 05:20 49.67944 -96.30571 10411 ft 269 kts 295°
2026-05-05 05:20 49.68663 -96.33225 10148 ft 267 kts 295°
2026-05-05 05:21 49.69380 -96.35869 9891 ft 265 kts 295°
2026-05-05 05:21 49.70072 -96.38429 9626 ft 261 kts 295°
2026-05-05 05:21 49.70762 -96.40983 9329 ft 253 kts 295°
2026-05-05 05:21 49.71437 -96.43480 9051 ft 251 kts 295°
2026-05-05 05:22 49.72106 -96.45958 8789 ft 250 kts 295°
2026-05-05 05:22 49.72774 -96.48437 8522 ft 249 kts 295°
2026-05-05 05:22 49.73442 -96.50911 8252 ft 249 kts 295°
2026-05-05 05:22 49.73892 -96.53497 7956 ft 253 kts 276°
2026-05-05 05:23 49.73894 -96.56210 7719 ft 252 kts 273°
2026-05-05 05:23 49.73880 -96.58878 7452 ft 251 kts 273°
2026-05-05 05:23 49.73868 -96.61570 7195 ft 250 kts 273°
2026-05-05 05:23 49.73857 -96.64239 6933 ft 248 kts 273°
2026-05-05 05:24 49.73848 -96.66890 6676 ft 246 kts 274°
2026-05-05 05:24 49.73840 -96.69526 6420 ft 244 kts 274°
2026-05-05 05:24 49.73833 -96.72135 6160 ft 242 kts 274°
2026-05-05 05:24 49.73826 -96.74718 6059 ft 239 kts 274°
2026-05-05 05:25 49.73819 -96.77256 6034 ft 239 kts 274°
2026-05-05 05:25 49.73810 -96.79812 6023 ft 237 kts 275°
2026-05-05 05:25 49.73803 -96.82349 6018 ft 236 kts 275°
2026-05-05 05:25 49.73796 -96.84881 6028 ft 236 kts 275°
2026-05-05 05:26 49.73789 -96.87427 6029 ft 237 kts 275°
2026-05-05 05:26 49.73781 -96.89980 6026 ft 238 kts 275°
2026-05-05 05:26 49.73772 -96.92529 6027 ft 239 kts 275°
2026-05-05 05:26 49.73762 -96.95086 6014 ft 236 kts 275°
2026-05-05 05:27 49.73746 -96.97590 5963 ft 229 kts 274°
2026-05-05 05:27 49.73710 -96.99992 5732 ft 223 kts 274°
2026-05-05 05:27 49.73629 -97.04578 5291 ft 206 kts 274°
2026-05-05 05:28 49.73593 -97.06786 5093 ft 204 kts 274°
2026-05-05 05:28 49.73557 -97.08969 4894 ft 202 kts 274°
2026-05-05 05:28 49.73520 -97.11091 4673 ft 193 kts 274°
2026-05-05 05:28 49.73484 -97.13123 4483 ft 186 kts 274°
2026-05-05 05:29 49.73462 -97.15103 4299 ft 182 kts 278°
2026-05-05 05:29 49.73623 -97.17026 4138 ft 180 kts 284°
2026-05-05 05:29 49.73820 -97.18914 3965 ft 181 kts 284°
2026-05-05 05:29 49.74018 -97.20847 3779 ft 182 kts 284°
2026-05-05 05:30 49.74212 -97.22784 3609 ft 182 kts 283°
2026-05-05 05:30 49.74409 -97.24715 3429 ft 181 kts 287°
2026-05-05 05:30 49.74993 -97.26311 3259 ft 167 kts 322°
2026-05-05 05:30 49.76004 -97.27096 3088 ft 163 kts 348°
2026-05-05 05:31 49.77116 -97.26999 2964 ft 154 kts
2026-05-05 05:31 49.78136 -97.26811 2798 ft 142 kts
2026-05-05 05:31 49.79109 -97.26606 2651 ft 141 kts
2026-05-05 05:31 49.80061 -97.26385 2526 ft 139 kts
2026-05-05 05:32 49.81013 -97.26163 2519 ft 140 kts
2026-05-05 05:32 49.81988 -97.25940 2369 ft 144 kts
2026-05-05 05:32 49.82967 -97.25705 2200 ft 140 kts
2026-05-05 05:32 49.83957 -97.25481 1996 ft 146 kts
2026-05-05 05:33 49.84962 -97.25252 1761 ft 147 kts
2026-05-05 05:33 49.85976 -97.25019 1503 ft 147 kts
2026-05-05 05:33 49.86995 -97.24778 1334 ft 149 kts
2026-05-05 05:33 49.88026 -97.24540 1108 ft 152 kts
2026-05-05 05:34 49.89072 -97.24294 893 ft 151 kts
2026-05-05 05:34 49.90083 -97.24053 784 ft 139 kts
2026-05-05 05:34 49.90894 -97.23871 787 ft 98 kts
2026-05-05 05:34 49.91335 -97.23762 782 ft 27 kts 18°
2026-05-05 05:35 49.91471 -97.23623 785 ft 16 kts 39°
2026-05-05 05:35 49.91548 -97.23527 784 ft 14 kts 43°
2026-05-05 05:35 49.91546 -97.23414 787 ft 12 kts 159°
2026-05-05 05:35 49.91464 -97.23420 787 ft 12 kts 188°
2026-05-05 05:36 49.91384 -97.23438 787 ft 12 kts 188°
2026-05-05 05:36 49.91299 -97.23460 787 ft 13 kts 190°
2026-05-05 05:36 49.91200 -97.23481 786 ft 16 kts 189°
2026-05-05 05:36 49.91089 -97.23503 785 ft 16 kts 179°
2026-05-05 05:37 49.90979 -97.23437 782 ft 18 kts 154°
2026-05-05 05:37 49.90880 -97.23365 781 ft 14 kts 155°
2026-05-05 05:37 49.90785 -97.23299 779 ft 16 kts 156°
2026-05-05 05:37 49.90695 -97.23223 781 ft 14 kts 126°
2026-05-05 05:38 49.90691 -97.23083 782 ft 11 kts 77°
2026-05-05 05:38 49.90706 -97.22971 782 ft 11 kts 79°
2026-05-05 05:38 49.90720 -97.22863 782 ft 11 kts 78°
2026-05-05 05:38 49.90735 -97.22754 782 ft 10 kts 78°
2026-05-05 05:39 49.90741 -97.22656 782 ft 9 kts 111°
2026-05-05 05:39 49.90698 -97.22625 782 ft 6 kts 166°
2026-05-05 05:39 49.90682 -97.22619 782 ft 2 kts 167°
2026-05-05 05:39 49.90679 -97.22618 782 ft 1 kts 167°
2026-05-05 05:40 49.90678 -97.22618 782 ft 0 kts 167°